[[{"header":{"parameterUnit":"m.s-1","parameterCategory":1,"la1":30.2991,"la2":30.254,"lo1":-89.0895,"lo2":-89.0444,"dx":0.0017,"dy":0.0017,"nx":28,"ny":28,"refTime":"2022-11-05T15:00:00:Z","depth":0,"parameterNumber":2,"parameterNumberName":"U-component_of_WINDS"},"data":[0,0,0,0,0,0,0,0,0,0,0,0,0,0,0,0,0,0,0,0,0,0,0,0,0,0,0,0,0,0,0,0,0,0,0,0,0,0,0,0,0,0,0,0,0,0,0,0,0,0,0,0,0,0,0,0,0,0,-1.7035,-1.7035,0,-1.7064,-1.7064,-1.7065,-1.7039,-1.7038,-1.7037,-1.7036,-1.7064,-1.7066,-1.7068,0,0,0,0,0,0,0,0,0,0,0,0,0,-1.6956,-1.6957,-1.7035,-1.7035,-1.7036,-1.7064,-1.7064,-1.7065,-1.704,-1.7038,-1.7037,-1.7036,-1.7064,-1.7066,-1.7068,0,0,0,0,0,0,0,0,0,0,0,0,0,-1.6988,-1.6958,-1.7035,-1.7027,-1.7026,-1.7064,-1.7064,-1.7065,-1.704,-1.7038,-1.7037,-1.7035,-1.7063,-1.7065,-1.7068,-1.7115,0,0,-1.7076,-1.7077,0,0,0,0,0,0,0,0,-1.6986,-1.6991,-1.7027,-1.7027,-1.7027,-1.7046,-1.7046,-1.7081,-1.704,-1.7035,-1.7036,-1.7035,-1.7059,-1.7062,-1.7071,-1.7116,-1.7117,-1.7076,-1.7078,-1.7079,-1.7079,0,0,0,0,0,0,0,-1.6984,-1.6989,-1.7046,-1.7028,-1.7028,-1.7021,-1.7024,-1.7053,-1.7055,-1.7035,-1.7033,-1.7037,-1.7059,-1.7069,-1.7071,-1.7118,-1.7076,-1.7078,-1.708,-1.7081,-1.7203,-1.7204,0,0,0,0,0,0,-1.6983,-1.6988,-1.7045,-1.7047,-1.7002,-1.7023,-1.7027,-1.7042,-1.7055,-1.7055,-1.7038,-1.7036,-1.7065,-1.7068,-1.7072,-1.7129,-1.7079,-1.7081,-1.7083,-1.7201,-1.7203,-1.7205,0,0,0,0,0,0,-1.6981,-1.6988,-1.7044,-1.7017,-1.7024,-1.7026,-1.7044,-1.7043,-1.7053,-1.7058,-1.7058,-1.7048,-1.7064,-1.7069,-1.7105,-1.7129,-1.7082,-1.7085,-1.7199,-1.7202,-1.7204,-1.7242,0,0,0,0,0,0,-1.6979,-1.6988,-1.7006,-1.7018,-1.7025,-1.7077,-1.7045,-1.7045,-1.7057,-1.7054,-1.7067,-1.7067,-1.7063,-1.7101,-1.7107,-1.7132,-1.7087,-1.7197,-1.72,-1.7203,-1.7238,-1.7245,-1.7251,0,0,0,0,0,-1.6976,-1.7015,-1.7007,-1.7014,-1.7049,-1.7078,-1.7083,-1.7078,-1.706,-1.7078,-1.7081,-1.7067,-1.7125,-1.7105,-1.7112,-1.7138,-1.7195,-1.7199,-1.7203,-1.7235,-1.7244,-1.7251,0,0,0,0,0,0,-1.7006,-1.7017,-1.7008,-1.7052,-1.7065,-1.7074,-1.7097,-1.7087,-1.7105,-1.7101,-1.7093,-1.7096,-1.7134,-1.7139,-1.7116,-1.7184,-1.7157,-1.7163,-1.718,-1.7188,-1.7194,-1.7193,-1.7089,0,0,0,0,0,-1.7018,-1.7042,-1.705,-1.7088,-1.7094,-1.7095,-1.7108,-1.7103,-1.7115,-1.712,-1.7126,-1.7138,-1.7159,-1.7173,-1.7193,-1.7238,-1.7241,-1.7259,-1.7266,-1.7271,-1.7276,-1.7301,-1.731,-1.7217,-1.7217,-1.7217,0,0,-1.7043,-1.7051,-1.7067,-1.7094,-1.7103,-1.7128,-1.71,-1.7127,-1.7145,-1.7124,-1.7159,-1.7163,-1.7176,-1.7217,-1.7235,-1.7222,-1.7302,-1.7276,-1.728,-1.7282,-1.7306,-1.7315,-1.7322,-1.722,-1.722,-1.7219,0,0,-1.7101,-1.7109,-1.7142,-1.7152,-1.7167,-1.7166,-1.7174,-1.7185,-1.7188,-1.7222,-1.7207,-1.7228,-1.7264,-1.7275,-1.7284,-1.7345,-1.7333,-1.7351,-1.7386,-1.741,-1.7418,-1.7424,-1.7447,-1.7455,-1.7356,-1.7356,-1.7356,0,-1.713,-1.7167,-1.7161,-1.719,-1.7202,-1.7184,-1.7217,-1.7227,-1.7246,-1.7255,-1.724,-1.7285,-1.7293,-1.7336,-1.7351,-1.7359,-1.7368,-1.7351,-1.7417,-1.7423,-1.7429,-1.7451,-1.746,-1.7359,-1.7358,-1.7358,-1.7358,0,-1.7202,-1.7229,-1.7253,-1.7274,-1.7289,-1.7319,-1.7317,-1.7332,-1.7325,-1.7327,-1.7362,-1.737,-1.7391,-1.74,-1.7394,-1.7443,-1.7435,-1.7418,-1.7392,-1.7441,-1.7461,-1.7469,-1.7362,-1.7361,-1.736,-1.736,0,0,-1.7282,-1.7298,-1.7308,-1.7317,-1.7331,-1.7351,-1.738,-1.7401,-1.7415,-1.7428,-1.7454,-1.7484,-1.7469,-1.748,-1.7474,-1.7495,-1.7544,-1.7476,-1.7477,-1.749,-1.76,-1.7614,-1.7624,-1.7535,-1.7537,-1.7538,-1.7599,0,-1.7342,-1.7395,-1.739,-1.7439,-1.7464,-1.7446,-1.7472,-1.7483,-1.7484,-1.7504,-1.7505,-1.7528,-1.7505,-1.7512,-1.7532,-1.7534,-1.7566,-1.7529,-1.7559,-1.756,-1.7559,-1.7634,-1.7649,-1.7707,-1.7607,-1.7608,-1.7609,0,-1.742,-1.7437,-1.749,-1.7501,-1.7511,-1.7534,-1.7553,-1.7572,-1.7584,-1.7583,-1.7595,-1.7585,-1.7614,-1.7585,-1.7625,-1.76,-1.7611,-1.7614,-1.7616,-1.7621,-1.7589,-1.7642,-1.7725,-1.7734,-1.7622,-1.7621,-1.762,0,-1.7475,-1.7511,-1.7548,-1.7556,-1.7569,-1.7586,-1.7591,-1.7601,-1.7614,-1.763,-1.7639,-1.7657,-1.7668,-1.7682,-1.7677,-1.7657,-1.7719,-1.7689,-1.772,-1.772,-1.7735,-1.7735,-1.7823,-1.7739,-1.7739,-1.7739,-1.7739,0,-1.7544,-1.7578,-1.7573,-1.7596,-1.7632,-1.7624,-1.7661,-1.7664,-1.7673,-1.7695,-1.768,-1.7701,-1.7693,-1.7713,-1.7709,-1.7743,-1.7747,-1.7748,-1.7747,-1.7751,-1.7751,-1.776,-1.7756,-1.7741,-1.7741,-1.774,-1.774,0,-1.7614,-1.7612,-1.7651,-1.7659,-1.7662,-1.7689,-1.7695,-1.7716,-1.7716,-1.7744,-1.775,-1.775,-1.7773,-1.7769,-1.7794,-1.7791,-1.7835,-1.7827,-1.7831,-1.7831,-1.7862,-1.786,-1.796,-1.7974,-1.7879,-1.788,-1.7881,0,-1.7659,-1.7684,-1.7696,-1.771,-1.7717,-1.774,-1.7754,-1.7746,-1.7761,-1.7775,-1.7795,-1.7816,-1.7834,-1.7872,-1.7873,-1.7892,-1.7887,-1.792,-1.789,-1.7893,-1.7889,-1.7889,-1.7892,-1.7927,-1.7929,-1.7929,-1.793,0,-1.774,-1.7738,-1.7758,-1.7779,-1.7795,-1.781,-1.7824,-1.7836,-1.7829,-1.7846,-1.787,-1.7884,-1.791,-1.7932,-1.7949,-1.7954,-1.7942,-1.7939,-1.7948,-1.7953,-1.7955,-1.7956,-1.7851,-1.7938,-1.7937,-1.7936,-1.7936,-1.7936,-1.78,-1.7823,-1.7834,-1.7857,-1.7866,-1.7879,-1.79,-1.7902,-1.7922,-1.7943,-1.7936,-1.7964,-1.7974,-1.7997,-1.8003,-1.8024,-1.8012,-1.8023,-1.8027,-1.803,-1.8035,-1.795,-1.8027,-1.8027,-1.8027,-1.8026,-1.8026,0,-1.7883,-1.7889,-1.791,-1.793,-1.7948,-1.7934,-1.7948,-1.7964,-1.7988,-1.7999,-1.8016,-1.8044,-1.8065,-1.8067,-1.8087,-1.8103,-1.8098,-1.8109,-1.8109,-1.8111,-1.8044,-1.8036,-1.8113,-1.8113,-1.8113,-1.8113,-1.8113,-1.8113,-1.7928,-1.7965,-1.7964,-1.8005,-1.801,-1.8038,-1.8047,-1.8059,-1.8067,-1.8099,-1.8117,-1.8118,-1.8125,-1.8145,-1.8164,-1.8164,-1.8173,-1.8187,-1.8185,-1.8124,-1.8115,-1.8107,-1.8099,-1.8188,-1.8188,-1.8249,-1.825,-1.825]},{"header":{"parameterUnit":"m.s-1","parameterCategory":1,"la1":30.2991,"la2":30.254,"lo1":-89.0895,"lo2":-89.0444,"dx":0.0017,"dy":0.0017,"nx":28,"ny":28,"refTime":"2022-11-05T15:00:00:Z","depth":0,"parameterNumber":3,"parameterNumberName":"V-component_of_WINDS"},"data":[0,0,0,0,0,0,0,0,0,0,0,0,0,0,0,0,0,0,0,0,0,0,0,0,0,0,0,0,0,0,0,0,0,0,0,0,0,0,0,0,0,0,0,0,0,0,0,0,0,0,0,0,0,0,0,0,0,0,-2.2731,-2.2731,0,-2.273,-2.273,-2.273,-2.268,-2.2678,-2.2677,-2.2676,-2.2674,-2.2675,-2.2676,0,0,0,0,0,0,0,0,0,0,0,0,0,-2.2689,-2.269,-2.2731,-2.2731,-2.2731,-2.273,-2.273,-2.273,-2.268,-2.2678,-2.2677,-2.2675,-2.2674,-2.2675,-2.2676,0,0,0,0,0,0,0,0,0,0,0,0,0,-2.27,-2.2691,-2.2731,-2.2706,-2.2704,-2.273,-2.273,-2.273,-2.268,-2.2678,-2.2676,-2.2674,-2.2673,-2.2675,-2.2677,-2.2727,0,0,-2.2682,-2.2683,0,0,0,0,0,0,0,0,-2.2699,-2.2701,-2.271,-2.2708,-2.2705,-2.2703,-2.2715,-2.2729,-2.2681,-2.2689,-2.2676,-2.2673,-2.2685,-2.2686,-2.269,-2.2727,-2.2727,-2.2682,-2.2683,-2.2684,-2.2684,0,0,0,0,0,0,0,-2.2699,-2.2701,-2.2731,-2.271,-2.2707,-2.2695,-2.2694,-2.2717,-2.2698,-2.2688,-2.2685,-2.2685,-2.2684,-2.2688,-2.2689,-2.2727,-2.2682,-2.2684,-2.2685,-2.2685,-2.2805,-2.2807,0,0,0,0,0,0,-2.2701,-2.2701,-2.2731,-2.2731,-2.2697,-2.2697,-2.2696,-2.2706,-2.2698,-2.2695,-2.2687,-2.2683,-2.2686,-2.2687,-2.2689,-2.2748,-2.2684,-2.2686,-2.2687,-2.2802,-2.2805,-2.2807,0,0,0,0,0,0,-2.2701,-2.2705,-2.2731,-2.2715,-2.2717,-2.27,-2.2711,-2.2707,-2.2711,-2.2697,-2.2693,-2.2695,-2.2685,-2.2687,-2.2718,-2.2747,-2.2686,-2.2688,-2.28,-2.2803,-2.2806,-2.2865,0,0,0,0,0,0,-2.27,-2.2705,-2.2724,-2.2716,-2.2718,-2.276,-2.2713,-2.2708,-2.2715,-2.2709,-2.2704,-2.2701,-2.2683,-2.2716,-2.272,-2.2748,-2.2689,-2.2797,-2.2801,-2.2805,-2.286,-2.287,-2.2878,0,0,0,0,0,-2.2698,-2.274,-2.2725,-2.2729,-2.2742,-2.2762,-2.2763,-2.2743,-2.2717,-2.2736,-2.2727,-2.2701,-2.2743,-2.2719,-2.2723,-2.2753,-2.2795,-2.28,-2.2805,-2.2857,-2.2868,-2.2878,0,0,0,0,0,0,-2.2752,-2.2739,-2.2722,-2.2762,-2.2764,-2.2753,-2.2777,-2.2755,-2.2764,-2.2758,-2.2732,-2.2731,-2.2767,-2.2763,-2.2736,-2.2801,-2.2765,-2.277,-2.2802,-2.2813,-2.2822,-2.2822,-2.2691,0,0,0,0,0,-2.2769,-2.2786,-2.2774,-2.2811,-2.2812,-2.2794,-2.2802,-2.2786,-2.2786,-2.2787,-2.2779,-2.278,-2.2794,-2.2803,-2.2815,-2.2859,-2.2857,-2.2882,-2.289,-2.2898,-2.2903,-2.2927,-2.2937,-2.2823,-2.2823,-2.2823,0,0,-2.2803,-2.2798,-2.2811,-2.2821,-2.282,-2.2839,-2.2795,-2.2817,-2.283,-2.279,-2.2819,-2.2814,-2.2813,-2.2851,-2.2868,-2.2849,-2.2934,-2.2904,-2.291,-2.2911,-2.2933,-2.2944,-2.2953,-2.2826,-2.2825,-2.2825,0,0,-2.2876,-2.2874,-2.2904,-2.2904,-2.2903,-2.2891,-2.2899,-2.2892,-2.2887,-2.2915,-2.2886,-2.2901,-2.2924,-2.2925,-2.2929,-2.3001,-2.2978,-2.3006,-2.3052,-2.3075,-2.3084,-2.3092,-2.3118,-2.3127,-2.3011,-2.3011,-2.3011,0,-2.2919,-2.2946,-2.2923,-2.2946,-2.2952,-2.2916,-2.2947,-2.2948,-2.2951,-2.2955,-2.2934,-2.2963,-2.296,-2.2998,-2.3016,-2.302,-2.3028,-2.3007,-2.3084,-2.3092,-2.3099,-2.3124,-2.3134,-2.3015,-2.3014,-2.3014,-2.3014,0,-2.2999,-2.3018,-2.3042,-2.3047,-2.3055,-2.3082,-2.3063,-2.3073,-2.3057,-2.3047,-2.3076,-2.3072,-2.3082,-2.3089,-2.3073,-2.3125,-2.3114,-2.3089,-2.3052,-2.3114,-2.3136,-2.3146,-2.302,-2.3018,-2.3017,-2.3017,0,0,-2.3105,-2.3096,-2.3106,-2.3107,-2.3103,-2.3118,-2.3143,-2.3153,-2.3163,-2.3166,-2.3186,-2.3207,-2.3184,-2.3188,-2.3172,-2.3192,-2.325,-2.3165,-2.3164,-2.3181,-2.3308,-2.3327,-2.3338,-2.3234,-2.3236,-2.3238,-2.3308,0,-2.3176,-2.3219,-2.3198,-2.3244,-2.3261,-2.3227,-2.3249,-2.3249,-2.3241,-2.3254,-2.3244,-2.3259,-2.3228,-2.323,-2.3249,-2.3239,-2.3275,-2.3234,-2.3254,-2.3255,-2.3255,-2.335,-2.337,-2.3436,-2.3317,-2.3318,-2.3319,0,-2.3264,-2.3271,-2.3318,-2.3311,-2.3317,-2.3338,-2.3345,-2.3358,-2.3357,-2.3349,-2.3354,-2.3333,-2.3357,-2.332,-2.3353,-2.3325,-2.3332,-2.3328,-2.333,-2.3332,-2.3291,-2.3354,-2.3457,-2.3467,-2.3333,-2.3332,-2.3331,0,-2.3337,-2.3358,-2.3389,-2.3391,-2.3384,-2.3399,-2.3397,-2.3394,-2.3401,-2.3408,-2.3412,-2.3421,-2.3426,-2.3434,-2.3415,-2.339,-2.3451,-2.3412,-2.3445,-2.3446,-2.346,-2.3459,-2.3566,-2.3464,-2.3463,-2.3463,-2.3463,0,-2.3418,-2.3448,-2.3422,-2.3441,-2.3474,-2.345,-2.3483,-2.3477,-2.3475,-2.3492,-2.3463,-2.348,-2.3454,-2.3469,-2.3454,-2.3484,-2.3486,-2.3481,-2.3477,-2.3484,-2.3485,-2.3488,-2.3483,-2.3466,-2.3465,-2.3465,-2.3464,0,-2.3506,-2.349,-2.3521,-2.3512,-2.351,-2.3535,-2.3526,-2.3544,-2.3533,-2.3555,-2.3559,-2.3542,-2.3557,-2.3539,-2.3553,-2.3543,-2.3583,-2.3572,-2.3584,-2.3581,-2.3615,-2.3612,-2.3728,-2.3742,-2.3631,-2.3632,-2.3633,0,-2.3559,-2.3582,-2.3575,-2.3584,-2.3583,-2.3599,-2.3606,-2.3584,-2.3592,-2.3593,-2.361,-2.3623,-2.3632,-2.3658,-2.3647,-2.3657,-2.3646,-2.3686,-2.3647,-2.3654,-2.3647,-2.3646,-2.3648,-2.3694,-2.3695,-2.3696,-2.3697,0,-2.3655,-2.3646,-2.3657,-2.3666,-2.3676,-2.3682,-2.3685,-2.3695,-2.3671,-2.3682,-2.3697,-2.3704,-2.3718,-2.3731,-2.3738,-2.3736,-2.3713,-2.3709,-2.3718,-2.3725,-2.3731,-2.3729,-2.3606,-2.3707,-2.3706,-2.3705,-2.3705,-2.3704,-2.3727,-2.3746,-2.3744,-2.3758,-2.3758,-2.3762,-2.3778,-2.3769,-2.3781,-2.3791,-2.3776,-2.3796,-2.3794,-2.3801,-2.3801,-2.3816,-2.3799,-2.3811,-2.3814,-2.3817,-2.3822,-2.3729,-2.3817,-2.3817,-2.3816,-2.3816,-2.3816,0,-2.3822,-2.3819,-2.3832,-2.3838,-2.3849,-2.3826,-2.3829,-2.3839,-2.3857,-2.3857,-2.3867,-2.3884,-2.3897,-2.3887,-2.3897,-2.3911,-2.39,-2.3914,-2.3913,-2.3913,-2.3837,-2.3829,-2.3922,-2.3922,-2.3922,-2.3922,-2.3922,-2.3922,-2.3873,-2.3903,-2.3893,-2.3923,-2.392,-2.3938,-2.3942,-2.3945,-2.3946,-2.3967,-2.3977,-2.397,-2.3966,-2.3976,-2.3987,-2.3983,-2.3989,-2.4006,-2.3999,-2.3929,-2.3918,-2.3908,-2.3901,-2.4008,-2.4008,-2.4074,-2.4075,-2.4075]}]]